Millenium Air

Millenium Air Since 1998



 METAR AND TAF INFORMATION
METAR FOR SCTN
ADDS - METARS form results

(0424 UTC 19 August 2019)
Data provider http://aviationweather.gov/metar/data/
 
METAR text: SCTN 190400Z AUTO VRB02KT CAVOK 07/00 Q1022
Conditions at: SCTN (CHAITEN , CL) observed 0400 UTC 19 August 2019
Temperature: 7.0°C (45°F)
Dewpoint: 0.0°C (32°F) [RH = 61%]
Pressure (altimeter): 30.18 inches Hg (1022.0 mb)
Winds: variable direction winds at 2 MPH (2 knots; 1.0 m/s)
Visibility: 6 or more miles (10+ km)
Ceiling: ceiling and visibility are OK
Clouds: unknown
Weather: no significant weather observed at this time

 AIRPORT MAP

 RUNWAY INFORMATION
Runway 13 Runway length 4670 ft Runway width 65 ft
Runway elevation 0 ft Runway displaced threshold 105 ft Runway heading 137
Runway 31 Runway length 4670 ft Runway width 65 ft
Runway elevation 0 ft Runway displaced threshold 0 ft Runway heading 317

 AIRPORT FREQUENCIES
Type INFO Name INFO Frequency 126.7 MHZ

 AIRPORT NEAR NAVIGATION AIDS
Type NDB Name Chaiten Frequency 234 KHZ